Location: Newark
(52.9422°N, 12.3972°E)
Time: 20:37:46
(UTC+00:00)

ISS - Visible Passes

Search period start: 27 September 2020 00:00
Search period end: 07 October 2020 00:00
Orbit: 419 x 421 km, 51.6° (Epoch: 28 September)

Date Brightness Start Highest point End Pass type
(mag) Time Alt. Az. Time Alt. Az. Time Alt. Az.
27 Sep -3.6 19:01:20 10° W 19:04:38 60° SSW 19:04:38 60° SSW visible
28 Sep -3.7 18:14:07 10° W 18:17:28 68° S 18:19:09 27° ESE visible
28 Sep -1.2 19:51:00 10° W 19:52:08 18° WSW 19:52:08 18° WSW visible
29 Sep -3.6 17:26:53 10° W 17:30:15 72° S 17:33:37 10° E visible
29 Sep -2.8 19:03:42 10° W 19:06:40 39° SSW 19:06:40 39° SSW visible
30 Sep -3.2 18:16:26 10° W 18:19:43 50° SSW 18:21:13 27° SE visible
30 Sep -0.7 19:53:47 10° WSW 19:54:11 12° WSW 19:54:11 12° WSW visible
01 Oct -3.4 17:29:11 10° W 17:32:31 59° SSW 17:35:48 10° ESE visible
01 Oct -1.9 19:06:14 10° W 19:08:46 23° SW 19:08:46 23° SW visible
02 Oct -2.3 18:18:49 10° W 18:21:50 30° SSW 18:23:24 20° SSE visible
03 Oct -2.6 17:31:28 10° W 17:34:39 39° SSW 17:37:50 10° SE visible
03 Oct -1.0 19:09:33 10° WSW 19:10:48 12° SW 19:11:03 12° SW visible
04 Oct -1.3 18:21:31 10° WSW 18:23:44 16° SW 18:25:48 11° S visible
05 Oct -1.6 17:33:55 10° W 17:36:37 22° SSW 17:39:20 10° SSE visible
